This is the latest recevied weather packets stored in our database for station/object N4BBA. If no packets are shown the sender has not sent any weather packets the latest 10 day(s).
| Time | Temp. | Humidity | Pressure | Rain* | Wind** | Luminosity | Snow |
|---|---|---|---|---|---|---|---|
| 1777577307 | 22.22° C | 52% | 1008.9 hPa | 0 mm | - | 233 W/m² | - |
| 1777577002 | 22.78° C | 52% | 1008.4 hPa | 0 mm | - | 728 W/m² | - |
| 1777576700 | 22.78° C | 52% | 1008.8 hPa | 0 mm | - | 722 W/m² | - |
| 1777576398 | 22.78° C | 52% | 1008.7 hPa | 0 mm | - | 728 W/m² | - |
| 1777576095 | 22.22° C | 54% | 1008.8 hPa | 0 mm | - | 738 W/m² | - |
| 1777575791 | 22.22° C | 55% | 1008.7 hPa | 0 mm | - | 742 W/m² | - |
| 1777575488 | 22.22° C | 55% | 1008.7 hPa | 0 mm | - | 750 W/m² | - |
| 1777575183 | 22.22° C | 56% | 1008.7 hPa | 0 mm | - | 758 W/m² | - |
| 1777574880 | 21.67° C | 55% | 1008.7 hPa | 0 mm | - | 764 W/m² | - |
| 1777574577 | 21.67° C | 56% | 1008.5 hPa | 0 mm | - | 773 W/m² | - |
| 1777574273 | 22.22° C | 56% | 1008.5 hPa | 0 mm | - | 781 W/m² | - |
| 1777573968 | 22.78° C | 58% | 1008.4 hPa | 0 mm | - | 784 W/m² | - |
| 1777573663 | 22.22° C | 59% | 1008.4 hPa | 0 mm | - | 790 W/m² | - |
| 1777573360 | 22.22° C | 60% | 1008.5 hPa | 0 mm | - | 794 W/m² | - |
| 1777573056 | 22.22° C | 62% | 1008.4 hPa | 0 mm | - | 801 W/m² | - |
| 1777572753 | 22.22° C | 63% | 1008.3 hPa | 0 mm | - | 801 W/m² | - |
| 1777572453 | 21.67° C | 65% | 1008.5 hPa | 0 mm | - | 830 W/m² | - |
| 1777572150 | 21.11° C | 65% | 1008.4 hPa | 0 mm | - | 835 W/m² | - |
| 1777571845 | 20.56° C | 66% | 1008.6 hPa | 0 mm | - | 890 W/m² | - |
| 1777571541 | 20.56° C | 67% | 1008.9 hPa | 0 mm | - | 429 W/m² | - |
| 1777571238 | 20.56° C | 68% | 1008.8 hPa | 0 mm | - | 383 W/m² | - |
| 1777570934 | 20.56° C | 68% | 1009 hPa | 0 mm | - | 422 W/m² | - |
| 1777570630 | 21.11° C | 71% | 1009 hPa | 0 mm | - | 706 W/m² | - |
| 1777570327 | 20° C | 73% | 1009.1 hPa | 0 mm | - | 953 W/m² | - |
| 1777570022 | 19.44° C | 74% | 1009.1 hPa | 0 mm | - | 559 W/m² | - |
* Rain latest hour (hover to see other rain measurements)
** Current wind speed in m/s (hover to see current wind gust speed)